{"data":{"norad_id":67177,"epoch":"2026-05-24T23:46:58.071360Z","epoch_age_seconds":79009,"freshness":"FRESH","line1":"1 67177U 25303Q   26144.99094990  .00013534  00000+0  50024-3 0  9996","line2":"2 67177  43.0011 239.8711 0002227 273.5337  86.5260 15.27591181 24400","mean_motion":15.27591181,"eccentricity":0.0002227,"inclination_deg":43.0011,"raan_deg":239.8711,"arg_perigee_deg":273.5337,"mean_anomaly_deg":86.526,"bstar":0.00050024,"rev_number":2440,"period_min":94.266058740752,"perigee_km":481.48763761987,"apogee_km":484.54359499517,"semimajor_km":6861.1526163075,"source":"CELESTRAK","updated_at":"2026-05-25T13:38:21.482689Z"}}